User: anonymous
Location: Del Oro Observatory
(38.3044°N, 104.8119°W)
Time: 04:19:56
(UTC-06:00)
Language:

Cosmos 1602 Rocket - Orbit

View from above orbital plane
View from above orbital plane
View from above satellite
View from above satellite

Ground track
Ground track

The orbit data is extracted from the following two-line orbital elements,

1 15332U 84105B   14208.17537226  .00000158  00000-0  16592-4 0  7056
2 15332 082.5344 094.8834 0020091 249.2849 225.8922 14.82746175610066
Epoch (UTC): 27 July 2014 04:12:32
Eccentricity: 0.0020091
inclination: 82.5344°
perigee height: 606 km
apogee height: 635 km
right ascension of ascending node: 94.8834°
argument of perigee: 249.2849°
revolutions per day: 14.82746175
mean anomaly at epoch: 225.8922°
orbit number at epoch: 61006

The dashed part of the orbit path shows where the satellite is in the earth's shadow,  

DLR